Location: Tierra del Sol
(32.6128°N, 116.3319°W)
Time: 04:03:19
(UTC-07:00)

Vanguard 2 Rocket - Visible Passes

Search period start: 22 July 2018 00:00
Search period end: 01 August 2018 00:00
Orbit: 554 x 3327 km, 32.9° (Epoch: 21 July)

Date Brightness Start Highest point End Pass type
(mag) Time Alt. Az. Time Alt. Az. Time Alt. Az.
22 Jul 9.4 01:21:31 10° E 01:21:31 10° E 01:21:39 10° E visible
22 Jul 7.1 03:27:20 53° WSW 03:29:01 87° S 03:38:49 10° E visible
23 Jul 7.5 02:31:14 49° E 02:31:14 49° E 02:37:18 10° E visible
23 Jul 7.7 04:37:03 11° W 04:43:21 89° N 04:55:24 10° E visible
24 Jul 9.1 01:35:11 15° E 01:35:11 15° E 01:36:19 10° E visible
24 Jul 7.2 03:41:00 39° W 03:43:30 87° N 03:53:19 10° E visible
25 Jul 7.1 02:44:59 63° E 02:44:59 63° E 02:51:46 10° E visible
25 Jul 7.7 04:51:17 10° W 04:57:48 83° S 05:09:49 10° ESE visible
26 Jul 8.9 01:49:00 18° E 01:49:00 18° E 01:50:49 10° E visible
26 Jul 7.2 03:54:50 30° W 03:58:00 90° SE 04:07:48 10° E visible
27 Jul 6.8 02:58:54 76° ENE 02:58:54 76° ENE 03:06:16 10° E visible
27 Jul 7.7 05:05:46 10° W 05:12:14 68° SSW 05:23:59 10° ESE visible
28 Jul 8.7 02:03:02 21° E 02:03:02 21° E 02:05:18 10° E visible
28 Jul 7.1 04:08:53 25° W 04:12:27 79° SSW 04:22:11 10° ESE visible
29 Jul 6.7 03:13:05 85° ESE 03:13:05 85° ESE 03:20:45 10° E visible
29 Jul 8.0 05:20:20 10° W 05:26:40 51° SSW 05:37:46 10° SE visible
30 Jul 8.6 02:17:21 22° E 02:17:21 22° E 02:19:47 10° E visible
30 Jul 7.2 04:23:12 23° W 04:26:53 61° SSW 04:36:20 10° ESE visible
31 Jul 6.6 03:27:33 73° S 03:27:33 73° S 03:35:07 10° ESE visible
